Погода в Столбовом

Россия / Еврейская автономная область     47°55′02″N   131°03′17″E
темп.,
°C
ветер,
м/с
пор.,
м/с
влажн.,
%
обл.,
%
осадки,
мм/ч
давл.,
гПа
погр.,
м
15 апреля, чт
чт1501:00−4зсз11533 0.0 101010
04:00−4зсз115343 0.0 101110
07:00−3ююв005136 0.0 101110
10:00+3ю223669 0.0 1011546
13:00+8ююз352963 0.0 10102133
16:00+9ю342325 0.0 10092132
19:00+8юв353091 0.0 1010208
22:00+4всв2337100 0.0 101144
16 апреля, пт
пт1601:00+5в41143100 0.1 1010364
04:00+4в61446100 0.1 1009406
07:00+3в51349100 0.0 1008476
10:00+7в8124736 0.0 1007832
13:00+13ююв81146100 0.0 10051952
16:00+10ююв71165100 0.4 10041280
19:00+9ююв71362100 0.3 10051378
22:00+8юв61161100 1.5 10061343
17 апреля, сб
сб1701:00+6в4978100 0.4 1005624
04:00+5всв4877100 0.4 1005485
07:00+4св4896100 0.1 1006431
10:00+5ссв2488100 0.2 1008469
13:00+7ссз137058 0.1 1009703
16:00+9ссв235998 0.1 10091208
19:00+9с23605 0.1 1009806
22:00+5ссз227948 0.1 101120
18 апреля, вс
вс1801:00+5ссз228383 0.0 101155
04:00+4ссз248753 0.0 101175
07:00+3ссз249036 0.0 101263
10:00+10ссз34565 0.0 1011809
13:00+13сз343869 0.0 10101948
16:00+15ссз45325 0.0 10072173
19:00+14с36362 0.0 1007794
22:00+8ссз35530 0.0 100875
19 апреля, пн
пн1901:00+6сз33590 0.0 100949
04:00+5сз22620 0.0 100928
07:00+4сз23642 0.0 101049
10:00+12сз36430 0.0 1009663
13:00+17ссз45323 0.0 10091882
16:00+18ссз46275 0.0 10082335
19:00+17сз47320 0.0 1009509
22:00+11ссз33490 0.0 101240